Location: G�nzburg
(48.4565°N, 10.3217°E)
Time: 14:47:23
(UTC+01:00)

ISS - Pass Details

Date: 13 January 2018
Orbit: 402 x 407 km, 51.6° (Epoch: 18 January)

Event Time Altitude Azimuth Distance (km) Brightness Sun altitude
Exits shadow 07:06:34 11° 262° (W) 1,408 -1.6 -9.7°
Maximum altitude 07:08:34 17° 222° (SW) 1,114 -1.8 -9.4°
Drops below altitude 10° 07:10:47 10° 179° (S) 1,460 -0.7 -9.1°
Sets 07:13:20 0° 158° (SSE) 2,316 0.7 -8.7°
